Time,TemperatureF,DewpointF,PressureIn,WindDirection,WindDirectionDegrees,WindSpeedMPH,WindSpeedGustMPH,Humidity,HourlyPrecipIn,Conditions,Clouds,dailyrainin,SolarRadiationWatts/m^2,SoftwareType,DateUTC
2013-08-30 00:02:00,69.0,61.0,-100.00,SW,227,3.0,10.0,77,0.00,,,0.00,0.000000,,2013-08-30 07:02:00,
2013-08-30 00:22:00,69.0,61.0,-100.00,SW,227,3.0,10.0,77,0.00,,,0.00,0.000000,,2013-08-30 07:22:00,
2013-08-30 00:32:00,69.0,61.0,-100.00,SW,227,3.0,10.0,77,0.00,,,0.00,0.000000,,2013-08-30 07:32:00,
2013-08-30 00:44:00,69.0,61.0,-100.00,SW,227,3.0,10.0,77,0.00,,,0.00,0.000000,,2013-08-30 07:44:00,
2013-08-30 00:53:00,69.0,61.0,-100.00,SW,227,3.0,10.0,77,0.00,,,0.00,0.000000,,2013-08-30 07:53:00,
2013-08-30 01:22:00,68.0,62.0,-100.00,SSE,151,3.0,4.0,81,0.00,,,0.00,0.000000,,2013-08-30 08:22:00,
2013-08-30 01:32:00,68.0,62.0,-100.00,SSE,151,3.0,4.0,81,0.00,,,0.00,0.000000,,2013-08-30 08:32:00,
2013-08-30 01:43:00,68.0,62.0,-100.00,SSE,151,3.0,4.0,81,0.00,,,0.00,0.000000,,2013-08-30 08:43:00,
2013-08-30 01:52:00,68.0,62.0,-100.00,SSE,151,3.0,4.0,81,0.00,,,0.00,0.000000,,2013-08-30 08:52:00,
2013-08-30 02:01:00,68.0,62.0,-100.00,SSE,151,3.0,4.0,81,0.00,,,0.00,0.000000,,2013-08-30 09:01:00,
2013-08-30 02:02:00,67.0,61.0,-100.00,SE,137,3.0,5.0,81,0.00,,,0.00,0.000000,,2013-08-30 09:02:00,
2013-08-30 02:22:00,67.0,61.0,-100.00,SE,137,3.0,5.0,81,0.00,,,0.00,0.000000,,2013-08-30 09:22:00,
2013-08-30 02:33:00,67.0,61.0,-100.00,SE,137,3.0,5.0,81,0.00,,,0.00,0.000000,,2013-08-30 09:33:00,
2013-08-30 02:44:00,67.0,61.0,-100.00,SE,137,3.0,5.0,81,0.00,,,0.00,0.000000,,2013-08-30 09:44:00,
2013-08-30 02:53:00,67.0,61.0,-100.00,SE,137,3.0,5.0,81,0.00,,,0.00,0.000000,,2013-08-30 09:53:00,
2013-08-30 03:02:00,67.0,61.0,-100.00,South,169,1.0,6.0,80,0.00,,,0.00,0.000000,,2013-08-30 10:02:00,
2013-08-30 03:23:00,67.0,61.0,-100.00,South,169,1.0,6.0,80,0.00,,,0.00,0.000000,,2013-08-30 10:23:00,
2013-08-30 03:32:00,67.0,61.0,-100.00,South,169,1.0,6.0,80,0.00,,,0.00,0.000000,,2013-08-30 10:32:00,
2013-08-30 03:43:00,67.0,61.0,-100.00,South,169,1.0,6.0,80,0.00,,,0.00,0.000000,,2013-08-30 10:43:00,
2013-08-30 03:53:00,67.0,61.0,-100.00,South,169,1.0,6.0,80,0.00,,,0.00,0.000000,,2013-08-30 10:53:00,
2013-08-30 04:22:00,66.0,60.0,-100.00,South,172,2.0,5.0,82,0.00,,,0.00,0.000000,,2013-08-30 11:22:00,
2013-08-30 04:33:00,66.0,60.0,-100.00,South,172,2.0,5.0,82,0.00,,,0.00,0.000000,,2013-08-30 11:33:00,
2013-08-30 04:42:00,66.0,60.0,-100.00,South,172,2.0,5.0,82,0.00,,,0.00,0.000000,,2013-08-30 11:42:00,
2013-08-30 04:52:00,66.0,60.0,-100.00,South,172,2.0,5.0,82,0.00,,,0.00,0.000000,,2013-08-30 11:52:00,
2013-08-30 05:01:00,66.0,60.0,-100.00,South,172,2.0,5.0,82,0.00,,,0.00,0.000000,,2013-08-30 12:01:00,
2013-08-30 05:02:00,65.0,60.0,-100.00,SE,125,3.0,4.0,84,0.00,,,0.00,0.000000,,2013-08-30 12:02:00,
2013-08-30 05:21:00,65.0,60.0,-100.00,SE,125,3.0,4.0,84,0.00,,,0.00,0.000000,,2013-08-30 12:21:00,
2013-08-30 05:32:00,65.0,60.0,-100.00,SE,125,3.0,4.0,84,0.00,,,0.00,0.000000,,2013-08-30 12:32:00,
2013-08-30 05:42:00,65.0,60.0,-100.00,SE,125,3.0,4.0,84,0.00,,,0.00,0.000000,,2013-08-30 12:42:00,
2013-08-30 05:52:00,65.0,60.0,-100.00,SE,125,3.0,4.0,84,0.00,,,0.00,0.000000,,2013-08-30 12:52:00,
2013-08-30 06:02:00,67.0,61.0,-100.00,South,176,1.0,4.0,80,0.00,,,0.00,0.000000,,2013-08-30 13:02:00,
2013-08-30 06:42:00,67.0,61.0,-100.00,South,176,1.0,4.0,80,0.00,,,0.00,0.000000,,2013-08-30 13:42:00,
2013-08-30 06:52:00,67.0,61.0,-100.00,South,176,1.0,4.0,80,0.00,,,0.00,0.000000,,2013-08-30 13:52:00,
2013-08-30 07:02:00,66.0,59.0,-100.00,South,170,1.0,4.0,79,0.00,,,0.00,12.000000,,2013-08-30 14:02:00,
2013-08-30 07:42:00,66.0,59.0,-100.00,South,170,1.0,4.0,79,0.00,,,0.00,12.000000,,2013-08-30 14:42:00,
2013-08-30 07:52:00,66.0,59.0,-100.00,South,170,1.0,4.0,79,0.00,,,0.00,12.000000,,2013-08-30 14:52:00,
2013-08-30 08:02:00,72.0,60.0,-100.00,SSW,193,5.0,7.0,65,0.00,,,0.00,124.000000,,2013-08-30 15:02:00,
2013-08-30 08:43:00,72.0,60.0,-100.00,SSW,193,5.0,7.0,65,0.00,,,0.00,124.000000,,2013-08-30 15:43:00,
2013-08-30 08:54:00,72.0,60.0,-100.00,SSW,193,5.0,7.0,65,0.00,,,0.00,124.000000,,2013-08-30 15:54:00,
2013-08-30 09:02:00,76.0,62.0,-100.00,South,190,5.0,10.0,61,0.00,,,0.00,392.000000,,2013-08-30 16:02:00,
2013-08-30 09:43:00,76.0,62.0,-100.00,South,190,5.0,10.0,61,0.00,,,0.00,392.000000,,2013-08-30 16:43:00,
2013-08-30 09:53:00,76.0,62.0,-100.00,South,190,5.0,10.0,61,0.00,,,0.00,392.000000,,2013-08-30 16:53:00,
2013-08-30 10:02:00,79.0,61.0,-100.00,SE,126,8.0,14.0,55,0.00,,,0.00,652.000000,,2013-08-30 17:02:00,
2013-08-30 10:23:00,79.0,61.0,-100.00,SE,126,8.0,14.0,55,0.00,,,0.00,652.000000,,2013-08-30 17:23:00,
2013-08-30 10:34:00,79.0,61.0,-100.00,SE,126,8.0,14.0,55,0.00,,,0.00,652.000000,,2013-08-30 17:34:00,
2013-08-30 10:42:00,79.0,61.0,-100.00,SE,126,8.0,14.0,55,0.00,,,0.00,652.000000,,2013-08-30 17:42:00,
2013-08-30 10:53:00,79.0,61.0,-100.00,SE,126,8.0,14.0,55,0.00,,,0.00,652.000000,,2013-08-30 17:53:00,
2013-08-30 11:42:00,80.0,61.0,-100.00,SSE,148,7.0,13.0,53,0.00,,,0.00,866.000000,,2013-08-30 18:42:00,
2013-08-30 11:52:00,80.0,61.0,-100.00,SSE,148,7.0,13.0,53,0.00,,,0.00,866.000000,,2013-08-30 18:52:00,
2013-08-30 12:01:00,80.0,61.0,-100.00,SSE,148,7.0,13.0,53,0.00,,,0.00,866.000000,,2013-08-30 19:01:00,
2013-08-30 12:02:00,81.0,62.0,-100.00,SSE,153,6.0,13.0,53,0.00,,,0.00,832.000000,,2013-08-30 19:02:00,
2013-08-30 12:42:00,81.0,62.0,-100.00,SSE,153,6.0,13.0,53,0.00,,,0.00,832.000000,,2013-08-30 19:42:00,
2013-08-30 12:53:00,81.0,62.0,-100.00,SSE,153,6.0,13.0,53,0.00,,,0.00,832.000000,,2013-08-30 19:53:00,
2013-08-30 13:02:00,78.0,61.0,-100.00,SE,125,8.0,15.0,56,0.00,,,0.00,559.000000,,2013-08-30 20:02:00,
2013-08-30 13:22:00,78.0,61.0,-100.00,SE,125,8.0,15.0,56,0.00,,,0.00,559.000000,,2013-08-30 20:22:00,
2013-08-30 13:32:00,78.0,61.0,-100.00,SE,125,8.0,15.0,56,0.00,,,0.00,559.000000,,2013-08-30 20:32:00,
2013-08-30 13:43:00,78.0,61.0,-100.00,SE,125,8.0,15.0,56,0.00,,,0.00,559.000000,,2013-08-30 20:43:00,
2013-08-30 13:52:00,78.0,61.0,-100.00,SE,125,8.0,15.0,56,0.00,,,0.00,559.000000,,2013-08-30 20:52:00,
2013-08-30 14:02:00,75.0,63.0,-100.00,ESE,117,5.0,11.0,67,0.01,,,0.01,373.000000,,2013-08-30 21:02:00,
2013-08-30 14:22:00,75.0,63.0,-100.00,ESE,117,5.0,11.0,67,0.01,,,0.01,373.000000,,2013-08-30 21:22:00,
2013-08-30 14:34:00,75.0,63.0,-100.00,ESE,117,5.0,11.0,67,0.01,,,0.01,373.000000,,2013-08-30 21:34:00,
2013-08-30 14:44:00,75.0,63.0,-100.00,ESE,117,5.0,11.0,67,0.01,,,0.01,373.000000,,2013-08-30 21:44:00,
2013-08-30 14:55:00,75.0,63.0,-100.00,ESE,117,5.0,11.0,67,0.01,,,0.01,373.000000,,2013-08-30 21:55:00,
2013-08-30 15:02:00,76.0,63.0,-100.00,SSE,154,9.0,16.0,65,0.00,,,0.01,662.000000,,2013-08-30 22:02:00,
2013-08-30 15:43:00,76.0,63.0,-100.00,SSE,154,9.0,16.0,65,0.00,,,0.01,662.000000,,2013-08-30 22:43:00,
2013-08-30 15:54:00,76.0,63.0,-100.00,SSE,154,9.0,16.0,65,0.00,,,0.01,662.000000,,2013-08-30 22:54:00,
2013-08-30 16:02:00,78.0,63.0,-100.00,SE,141,8.0,15.0,61,0.00,,,0.01,472.000000,,2013-08-30 23:02:00,
2013-08-30 16:22:00,78.0,63.0,-100.00,SE,141,8.0,15.0,61,0.00,,,0.01,472.000000,,2013-08-30 23:22:00,
2013-08-30 16:33:00,78.0,63.0,-100.00,SE,141,8.0,15.0,61,0.00,,,0.01,472.000000,,2013-08-30 23:33:00,
2013-08-30 16:42:00,78.0,63.0,-100.00,SE,141,8.0,15.0,61,0.00,,,0.01,472.000000,,2013-08-30 23:42:00,
2013-08-30 16:53:00,78.0,63.0,-100.00,SE,141,8.0,15.0,61,0.00,,,0.01,472.000000,,2013-08-30 23:53:00,
2013-08-30 17:22:00,75.0,64.0,-100.00,SSE,158,8.0,16.0,68,0.00,,,0.01,446.000000,,2013-08-31 00:22:00,
2013-08-30 17:32:00,75.0,64.0,-100.00,SSE,158,8.0,16.0,68,0.00,,,0.01,446.000000,,2013-08-31 00:32:00,
2013-08-30 17:42:00,75.0,64.0,-100.00,SSE,158,8.0,16.0,68,0.00,,,0.01,446.000000,,2013-08-31 00:42:00,
2013-08-30 17:52:00,75.0,64.0,-100.00,SSE,158,8.0,16.0,68,0.00,,,0.01,446.000000,,2013-08-31 00:52:00,
2013-08-30 18:01:00,75.0,64.0,-100.00,SSE,158,8.0,16.0,68,0.00,,,0.01,446.000000,,2013-08-31 01:01:00,
2013-08-30 18:02:00,73.0,64.0,-100.00,SSE,160,9.0,17.0,73,0.00,,,0.01,226.000000,,2013-08-31 01:02:00,
2013-08-30 18:42:00,73.0,64.0,-100.00,SSE,160,9.0,17.0,73,0.00,,,0.01,226.000000,,2013-08-31 01:42:00,
2013-08-30 18:52:00,73.0,64.0,-100.00,SSE,160,9.0,17.0,73,0.00,,,0.01,226.000000,,2013-08-31 01:52:00,
2013-08-30 19:02:00,71.0,63.0,-100.00,SSE,155,8.0,21.0,77,0.00,,,0.01,103.000000,,2013-08-31 02:02:00,
2013-08-30 19:42:00,71.0,63.0,-100.00,SSE,155,8.0,21.0,77,0.00,,,0.01,103.000000,,2013-08-31 02:42:00,
2013-08-30 19:52:00,71.0,63.0,-100.00,SSE,155,8.0,21.0,77,0.00,,,0.01,103.000000,,2013-08-31 02:52:00,
2013-08-30 20:02:00,69.0,64.0,-100.00,SSE,167,7.0,14.0,83,0.00,,,0.01,12.000000,,2013-08-31 03:02:00,
2013-08-30 20:44:00,69.0,64.0,-100.00,SSE,167,7.0,14.0,83,0.00,,,0.01,12.000000,,2013-08-31 03:44:00,
2013-08-30 20:54:00,69.0,64.0,-100.00,SSE,167,7.0,14.0,83,0.00,,,0.01,12.000000,,2013-08-31 03:54:00,
2013-08-30 21:02:00,69.0,63.0,-100.00,SSE,154,6.0,11.0,80,0.00,,,0.01,0.000000,,2013-08-31 04:02:00,
2013-08-30 21:24:00,69.0,63.0,-100.00,SSE,154,6.0,11.0,80,0.00,,,0.01,0.000000,,2013-08-31 04:24:00,
2013-08-30 21:34:00,69.0,63.0,-100.00,SSE,154,6.0,11.0,80,0.00,,,0.01,0.000000,,2013-08-31 04:34:00,
2013-08-30 21:44:00,69.0,63.0,-100.00,SSE,154,6.0,11.0,80,0.00,,,0.01,0.000000,,2013-08-31 04:44:00,
2013-08-30 21:54:00,69.0,63.0,-100.00,SSE,154,6.0,11.0,80,0.00,,,0.01,0.000000,,2013-08-31 04:54:00,
2013-08-30 22:02:00,67.0,63.0,-100.00,SSE,161,6.0,11.0,87,0.00,,,0.01,0.000000,,2013-08-31 05:02:00,
2013-08-30 22:43:00,67.0,63.0,-100.00,SSE,161,6.0,11.0,87,0.00,,,0.01,0.000000,,2013-08-31 05:43:00,
2013-08-30 22:52:00,67.0,63.0,-100.00,SSE,161,6.0,11.0,87,0.00,,,0.01,0.000000,,2013-08-31 05:52:00,
2013-08-30 23:42:00,67.0,63.0,-100.00,SSE,155,7.0,14.0,88,0.00,,,0.01,0.000000,,2013-08-31 06:42:00,
2013-08-30 23:52:00,67.0,63.0,-100.00,SSE,155,7.0,14.0,88,0.00,,,0.01,0.000000,,2013-08-31 06:52:00,